Temp
6 6 6 6 6 6 6 7 7 7 7 7 7 7 7 6 6 6 9 10 9 13 16 17 18 18 20 21 21 22 22 23 24 23 25 26 26 27 26 26 26 25 25 26 25 25 24 26 25 24 25 25 25 25
7 7 6 6 6 6 6 7 7 7 7 7 7 7 6 7 6 6 9 11 9 9 15 14 14 15 16 17 18 21 21 21 23 24 25 25 26 25 25 25 25 24 25 25 25 26 24 25 25 25 24 24 24 25
6 7 7 7 6 7 6 7 7 7 7 7 7 7 7 7 6 6 7 8 8 10 14 15 16 16 16 16 16 16 20 21 21 21 22 24 23 25 24 24 25 24 24 24 24 25 25 25 25 25 25 24 25 25
6 6 6 6 7 7 7 7 7 7 7 7 7 7 7 6 6 6 7 9 8 11 13 17 17 16 16 16 17 17 17 19 20 21 21 22 23 24 24 25 24 26 23 24 24 25 25 25 25 25 24 24 25 25
6 6 6 6 6 7 7 6 6 7 7 7 7 7 7 7 6 6 6 7 8 10 12 14 15 15 16 16 16 16 17 18 20 20 21 21 24 24 23 24 24 25 24 24 24 25 25 24 24 25 23 24 24 24
6 6 6 6 6 6 6 6 6 6 7 7 7 7 7 6 6 7 10 10 9 10 12 13 18 18 18 18 17 17 18 19 19 19 21 22 23 22 23 23 24 25 25 25 24 24 23 23 23 23 23 24 24 24
5 6 6 6 6 6 6 6 6 6 6 6 6 6 6 6 6 7 11 7 7 8 11 13 17 19 17 18 19 19 18 19 19 19 19 21 23 20 22 22 24 24 24 24 24 23 22 23 23 24 24 23 22 23
5 5 6 6 6 6 6 6 6 6 6 6 6 6 6 6 6 7 8 8 7 7 9 11 16 18 18 18 18 19 19 19 19 19 21 22 23 21 21 23 24 24 23 23 23 23 23 23 23 23 23 23 23 23
5 5 5 6 6 6 6 6 6 6 6 6 6 6 6 6 8 11 10 9 8 8 10 13 15 17 16 18 20 19 20 17 20 19 21 22 22 21 22 22 23 22 22 22 22 23 23 22 22 22 23 23 23 23
5 5 5 6 6 6 6 6 6 6 6 6 6 7 8 9 9 9 8 9 8 8 8 10 15 16 15 15 18 19 18 17 18 20 22 21 22 24 24 23 21 21 21 21 21 22 22 22 21 22 22 23 23 23
5 5 6 6 6 6 6 6 6 6 6 7 8 8 8 8 9 9 11 10 10 9 10 14 16 15 14 14 16 18 18 16 19 20 21 22 22 23 21 20 20 20 20 21 20 20 21 21 21 21 21 21 21 22
5 5 6 6 6 6 6 6 6 6 7 7 6 7 7 9 11 12 12 10 9 13 15 15 15 15 13 16 14 17 18 20 19 21 21 21 19 19 20 20 20 20 20 20 20 20 20 21 21 21 21 22 21 21
5 6 6 6 7 7 7 6 6 6 7 7 7 8 10 11 10 12 13 14 14 15 16 14 14 15 16 15 15 17 18 19 21 19 19 19 19 19 19 19 19 19 19 19 19 19 19 20 19 20 21 20 20 20
5 6 6 6 7 7 6 6 6 6 7 6 7 7 10 12 13 15 16 15 15 15 13 13 14 15 17 16 16 17 19 19 19 20 19 17 18 18 18 18 19 18 17 18 18 18 17 17 17 18 19 19 19 19
6 6 7 7 7 6 6 6 6 6 7 7 7 8 13 15 14 14 15 15 16 15 13 14 15 17 17 15 16 15 18 19 20 18 18 17 17 17 17 16 15 15 18 18 17 18 16 15 15 14 15 18 18 17
6 6 7 7 6 6 6 6 6 7 8 8 7 8 12 13 13 11 12 14 13 14 14 16 16 17 18 20 19 19 20 19 18 18 17 16 16 16 16 16 17 17 18 18 18 18 17 14 13 13 13 16 16 14
6 7 6 6 6 6 6 6 7 8 8 9 9 11 10 10 11 12 11 11 12 13 15 17 17 19 20 19 19 19 18 17 18 16 16 16 16 15 16 17 17 17 17 17 17 17 16 16 15 15 14 12 12 12
7 6 6 6 6 5 6 6 7 9 9 10 11 10 10 11 10 10 11 12 13 14 16 17 18 19 19 19 18 17 17 16 17 17 16 15 15 15 17 17 17 17 16 16 16 17 16 16 15 12 13 14 13 12
7 6 6 6 6 6 8 8 8 11 11 10 9 10 10 10 10 10 11 12 12 13 15 17 18 17 16 15 16 16 16 16 18 16 15 15 13 15 16 16 16 16 16 16 16 17 16 16 16 15 14 12 11 10
7 7 6 6 6 8 10 10 9 10 10 10 10 10 10 11 11 12 14 16 13 15 16 16 15 14 14 14 15 17 17 17 17 16 15 15 15 14 14 15 16 17 17 17 16 16 16 15 16 16 14 12 10 10
6 6 6 6 7 7 8 11 12 12 11 10 10 10 11 11 12 14 14 16 16 13 13 12 12 15 16 15 16 17 16 17 16 16 17 16 15 12 16 17 17 18 19 19 19 18 19 18 16 16 17 16 15 14
7 7 7 7 7 9 9 9 10 11 9 10 11 10 12 13 14 14 14 14 12 12 12 12 13 15 16 16 17 16 16 16 16 16 15 12 12 11 14 15 17 18 18 18 18 19 18 18 16 16 16 15 15 14
8 8 7 8 8 8 9 9 11 11 11 10 11 11 12 12 13 15 14 12 12 11 11 12 13 15 15 15 15 16 16 17 18 16 12 13 14 15 16 17 17 18 18 17 17 17 16 14 14 15 14 15 14 12
8 8 8 8 8 9 9 9 9 9 10 11 12 12 12 12 13 15 13 12 12 13 14 15 15 16 14 15 15 17 16 16 16 17 17 18 18 17 17 17 17 16 16 16 16 16 15 15 14 15 14 12 14 14
7 7 8 8 9 10 13 14 15 15 15 14 15 15 15 17 15 13 13 13 13 13 16 16 16 15 15 14 14 15 15 18 19 19 18 18 18 18 17 17 16 16 16 16 16 16 15 15 15 15 14 14 14 14
7 10 9 15 15 16 16 16 16 16 17 16 15 16 16 13 12 12 11 12 12 13 14 15 15 15 17 16 17 17 16 16 18 19 18 18 18 19 18 18 18 16 16 15 15 15 15 15 14 14 13 12 11 13
12 14 16 16 16 17 17 17 17 17 16 16 16 16 17 14 12 12 12 11 12 12 12 12 13 16 17 16 16 16 16 15 15 16 16 16 16 16 17 17 16 15 15 15 15 15 14 14 14 14 13 13 12 12
15 15 14 16 16 17 16 16 15 15 16 16 17 15 14 12 12 13 13 13 14 13 14 14 13 12 13 13 15 16 16 15 15 16 16 16 15 15 15 15 13 13 14 13 14 14 14 13 13 13 13 13 12 12
12 11 12 13 14 12 12 12 13 14 14 16 14 13 12 14 14 14 14 15 15 16 16 17 17 16 16 16 15 15 15 16 17 17 17 17 17 15 14 14 14 14 14 13 12 12 11 11 11 12 12 12 12 11
13 15 14 14 13 13 13 14 15 16 16 17 16 16 17 16 16 15 13 14 17 17 17 17 17 17 17 17 16 15 14 14 14 16 16 16 15 14 14 14 14 14 14 13 13 12 11 11 11 12 12 12 12 11
15 17 17 17 16 16 17 18 18 18 19 19 19 18 18 18 17 16 16 17 17 17 17 17 17 16 16 16 16 16 15 13 12 12 13 13 13 12 12 13 13 13 13 13 13 13 12 12 12 12 12 11 11 11
16 16 17 16 17 17 18 18 18 18 18 18 18 19 19 19 18 18 16 17 17 18 15 16 17 15 15 14 13 12 12 13 12 12 12 12 12 12 12 12 12 12 12 12 12 12 12 12 12 11 11 11 10 10
18 18 18 18 17 18 18 18 18 18 18 18 18 19 19 19 17 18 15 15 16 17 17 16 15 14 13 13 13 12 12 12 11 10 10 10 10 10 11 12 12 12 12 12 12 12 11 11 11 10 10 10 10 10
Height
817 817 818 818 819 819 820 820 820 821 821 820 820 820 821 821 820 819 816 817 818 810 796 796 794 790 784 780 775 771 775 769 765 769 762 755 754 749 758 753 756 764 766 761 761 766 770 743 749 761 752 745 745 747
811 811 812 813 813 814 815 815 816 817 817 817 817 818 819 820 819 819 816 814 814 814 799 797 796 793 792 790 789 777 773 774 762 760 752 750 750 753 756 761 749 767 753 755 755 749 748 747 751 748 748 748 746 745
804 805 806 807 808 809 810 810 811 812 812 814 815 815 816 817 817 818 816 815 813 810 799 788 784 784 787 788 791 792 775 771 773 773 762 754 760 748 754 756 749 750 750 756 755 747 745 747 745 744 745 745 741 740
800 800 800 801 802 803 804 805 806 808 809 810 811 812 814 815 815 815 814 813 813 807 793 775 776 778 780 780 782 784 783 776 778 773 767 759 755 750 749 744 749 739 749 751 750 746 744 740 741 744 745 743 741 739
795 795 795 796 797 798 799 800 801 803 805 807 808 809 811 812 813 813 812 810 810 810 794 784 779 772 771 774 776 778 779 777 772 770 765 761 750 750 749 749 748 737 744 749 746 738 741 741 742 741 743 741 738 736
791 791 791 791 792 793 794 796 797 799 801 803 804 806 808 810 811 811 803 801 805 807 802 782 762 761 760 761 765 769 769 771 769 768 760 751 747 755 749 746 737 734 734 733 737 737 740 741 740 742 740 736 734 734
786 787 787 787 787 788 790 792 794 796 798 800 802 803 805 807 809 809 796 802 802 804 801 782 757 747 754 754 757 759 763 763 763 760 759 751 746 754 747 744 733 732 733 734 736 737 738 737 735 732 734 734 733 734
781 782 783 783 784 785 787 789 791 794 795 797 800 801 803 804 805 801 797 798 801 803 801 787 759 749 750 746 749 753 754 758 757 754 746 743 739 744 742 732 729 728 731 732 733 734 732 730 730 730 730 728 730 730
776 778 779 780 781 782 784 786 789 791 794 796 798 799 801 801 799 790 792 795 797 800 791 775 759 749 753 746 737 748 744 753 743 747 739 734 730 736 729 728 727 729 731 732 732 729 726 728 725 725 725 725 727 726
772 774 775 776 778 779 781 784 787 790 793 795 798 798 793 787 787 789 792 792 794 792 791 779 759 752 758 752 739 738 743 746 742 732 725 730 724 714 718 719 728 730 730 730 730 727 726 725 726 723 722 723 724 724
768 769 771 772 774 776 779 782 786 789 792 793 791 788 784 784 786 785 779 780 781 781 775 757 750 749 757 757 743 731 733 736 726 724 724 717 716 712 722 725 728 728 730 729 729 729 728 726 725 723 723 724 725 725
764 765 767 768 769 772 776 780 783 786 787 786 787 785 784 783 776 770 764 775 777 756 746 744 744 747 757 749 750 733 727 713 723 714 718 717 722 722 722 723 726 727 727 727 727 726 726 725 723 723 721 722 724 725
760 762 763 764 766 770 774 778 781 784 786 788 786 783 777 769 770 760 750 748 744 743 739 743 745 743 745 747 738 728 723 720 710 721 719 720 722 723 725 726 727 727 727 727 726 726 725 723 723 722 721 722 723 725
757 759 761 763 766 770 773 777 780 783 785 786 783 782 770 756 749 742 736 736 738 740 743 744 741 740 735 737 736 726 720 716 716 715 718 724 725 726 728 729 727 729 729 727 727 726 727 726 725 724 722 723 724 727
756 758 761 764 766 770 773 776 779 782 782 779 779 771 750 742 745 744 740 739 735 740 744 741 736 730 733 737 732 733 723 715 712 719 722 726 728 730 731 731 732 731 729 727 728 726 727 728 729 729 729 729 730 732
756 759 762 764 767 770 773 777 780 781 779 775 777 768 749 745 743 748 743 738 739 737 740 735 729 724 719 711 717 716 711 717 724 722 729 730 732 732 731 730 730 730 728 726 725 726 727 731 733 733 732 734 736 739
756 758 761 765 768 771 774 777 777 776 773 769 762 753 755 753 748 745 745 742 740 738 730 724 721 714 708 712 715 711 721 727 725 731 731 733 732 733 732 731 730 729 729 729 728 728 730 733 736 737 738 741 742 744
757 759 763 766 770 773 776 774 773 769 765 758 751 753 752 749 747 745 742 739 738 732 725 720 714 712 713 715 720 725 728 731 731 732 733 735 734 734 731 732 732 732 733 733 733 733 734 736 739 741 743 745 748 751
758 761 765 768 771 772 771 770 770 759 753 754 753 750 749 745 743 741 739 737 736 734 729 720 717 718 725 729 728 729 732 733 728 734 736 737 739 737 736 736 736 736 737 737 738 738 740 741 742 745 749 751 752 754
761 764 767 770 770 769 764 762 765 761 753 750 748 744 743 740 739 735 732 730 734 728 726 726 730 735 734 736 734 732 733 733 734 735 739 741 741 741 742 741 740 739 738 740 742 743 744 746 746 748 751 754 756 759
767 769 771 771 770 768 765 757 753 750 748 746 742 734 732 734 733 731 729 726 728 741 744 745 744 739 737 737 736 736 738 737 738 739 740 743 746 747 744 744 744 741 739 738 739 741 741 743 749 749 749 753 755 758
769 772 772 771 769 765 761 758 755 752 752 748 743 740 732 734 733 736 736 739 747 749 749 748 745 741 740 739 740 741 742 743 744 745 749 750 752 752 752 751 749 746 747 746 745 744 746 748 751 752 755 758 759 761
771 771 770 769 767 764 761 757 752 752 748 748 745 743 743 744 744 741 742 749 751 753 753 751 748 746 745 745 745 746 747 745 747 750 754 756 756 757 755 753 752 750 750 752 751 751 753 755 756 757 759 760 763 766
772 771 769 767 766 763 760 755 756 754 751 747 746 747 749 748 746 743 751 755 756 754 751 748 747 747 749 748 748 749 752 753 754 754 755 754 755 757 756 756 756 757 756 756 756 756 757 759 760 760 764 766 765 764
775 771 770 767 761 757 746 740 737 737 738 741 739 742 745 741 746 756 759 759 759 757 750 750 749 750 752 752 753 754 756 753 751 754 756 757 757 758 759 760 761 761 759 759 760 761 761 762 763 764 765 766 767 767
772 762 763 744 741 739 735 737 739 739 737 741 747 747 747 758 764 767 767 766 764 762 760 757 756 755 754 756 755 757 759 759 757 755 759 759 758 757 758 759 759 763 763 763 763 764 764 765 766 767 768 769 770 768
755 750 745 746 743 741 740 740 738 739 743 747 747 748 746 759 770 771 770 771 768 768 766 765 763 760 759 761 763 763 763 763 763 762 763 764 764 764 763 763 764 767 766 766 766 766 766 767 767 768 768 769 770 770
754 754 752 747 744 742 745 747 751 753 750 750 749 756 762 770 773 770 770 770 769 769 769 767 767 767 768 767 767 765 766 766 766 766 766 767 768 768 768 768 769 769 770 770 770 770 770 770 770 770 770 769 770 770
763 764 760 756 755 760 763 763 760 760 760 754 760 766 772 771 772 771 770 770 770 770 770 768 768 768 769 769 769 769 768 767 765 764 764 762 764 768 770 770 769 770 770 773 774 774 774 774 773 772 772 771 770 769
765 759 760 762 762 763 766 765 763 761 760 760 762 766 766 769 771 771 772 772 770 770 771 771 770 769 769 768 770 772 772 772 770 768 766 768 771 772 771 771 771 771 772 772 772 774 774 773 772 771 771 769 768 768
766 760 761 761 763 765 763 762 762 762 761 761 762 764 767 770 773 774 773 773 772 772 772 772 773 773 773 773 772 771 775 777 777 777 775 775 775 775 774 774 773 773 773 773 773 773 773 772 771 771 770 770 769 769
768 767 766 767 768 768 765 765 766 768 768 767 766 765 767 766 769 772 776 774 773 771 775 774 773 777 778 778 779 779 779 779 780 780 779 779 778 778 777 776 776 775 775 774 773 773 772 772 771 771 770 769 769 768
769 768 767 768 770 768 767 767 768 770 768 767 767 765 766 767 770 773 777 776 776 774 775 776 777 779 780 780 781 782 782 782 782 782 782 781 781 780 778 777 777 776 775 774 773 772 771 772 771 771 770 769 768 766
Wind_Speed
21 20 18 17 16 16 15 13 10 11 9 9 10 8 7 8 7 4 6 5 4 4 10 13 10 9 10 6 7 6 7 8 7 11 12 11 10 9 12 14 10 11 9 8 8 10 12 7 4 6 8 9 8 7
19 18 18 17 16 16 15 13 11 11 11 10 10 9 7 8 6 6 6 4 6 6 9 15 16 20 19 19 10 7 10 4 4 5 6 6 10 5 9 11 9 11 10 7 5 2 5 2 4 8 9 11 9 8
18 18 18 17 17 15 15 15 14 13 13 11 9 10 8 6 7 5 8 8 4 3 12 17 14 20 23 25 22 7 8 8 4 4 7 4 6 5 8 12 11 8 6 8 10 12 6 4 9 3 6 8 9 7
14 16 17 16 16 16 15 15 14 13 13 12 9 10 9 8 8 5 10 8 6 6 5 4 6 10 12 16 24 23 24 13 7 6 8 8 8 5 9 7 6 6 6 9 12 15 14 16 4 5 9 10 9 8
13 14 14 15 16 16 15 15 15 14 13 13 10 10 9 8 7 8 13 15 15 6 4 8 25 30 28 23 19 20 25 18 11 10 8 9 9 7 8 7 10 12 13 11 11 12 11 14 13 11 13 14 12 8
14 13 13 13 14 15 14 13 12 12 12 11 9 8 9 8 5 6 3 12 16 17 4 5 8 11 12 15 27 22 16 12 11 9 9 9 12 6 7 9 14 12 11 14 14 10 13 16 12 14 14 10 9 7
14 13 12 11 10 11 11 11 11 10 10 10 9 9 8 8 8 8 5 4 6 4 3 5 5 4 2 13 11 11 21 9 9 11 10 10 9 6 11 13 13 10 10 9 11 14 15 14 13 12 8 11 6 9
13 12 11 9 10 10 10 10 10 9 8 8 6 6 7 8 10 15 22 14 9 5 4 4 5 8 6 6 8 7 9 10 9 10 8 10 7 6 9 12 10 8 6 8 8 6 11 12 12 13 12 8 8 8
12 12 10 9 9 9 10 10 9 8 8 6 6 6 5 6 6 6 11 6 9 4 3 4 7 2 3 8 6 8 7 9 6 9 12 8 10 8 8 9 5 2 4 4 6 11 7 7 7 6 7 8 10 8
12 13 11 10 11 10 10 11 9 9 8 6 5 4 3 6 9 7 7 5 4 4 4 4 5 8 3 5 7 7 6 4 6 11 8 6 11 13 14 7 4 6 5 5 8 8 5 7 5 4 5 7 8 7
12 13 13 11 11 11 12 13 12 11 8 5 6 4 1 5 8 4 4 5 5 4 4 7 13 9 2 5 4 5 4 3 7 6 7 7 8 5 2 4 4 4 4 5 4 4 4 6 7 6 4 7 7 9
11 11 12 12 14 14 15 16 15 13 6 3 4 5 2 3 5 5 5 5 6 5 4 6 6 6 4 4 2 4 4 2 3 7 5 4 4 4 4 5 4 1 2 4 4 5 6 6 5 5 5 6 7 6
10 10 8 9 15 15 15 17 15 11 5 2 3 2 4 4 4 5 6 4 4 4 3 2 3 5 5 5 6 4 5 5 4 5 4 3 7 6 6 4 2 1 3 1 2 4 7 6 4 5 5 5 6 6
7 8 11 12 15 14 16 16 15 9 3 2 3 3 5 5 4 6 7 2 1 1 2 2 4 4 2 3 3 3 2 3 3 4 3 6 7 8 5 4 4 5 5 2 3 3 4 5 3 3 3 6 8 10
9 11 12 13 15 15 15 16 15 8 5 2 2 4 7 6 6 7 7 8 6 3 2 5 5 5 8 5 5 2 3 2 3 3 4 5 5 3 2 4 3 2 2 3 3 3 6 4 8 11 11 9 13 13
14 13 11 15 15 16 15 14 11 5 3 3 4 5 5 6 2 3 5 4 1 4 4 6 4 4 6 3 3 5 2 4 4 5 5 4 5 3 1 2 2 4 3 3 4 5 8 11 8 13 17 13 14 15
11 5 15 15 16 15 16 9 7 4 3 3 4 4 4 6 6 3 2 4 3 2 4 4 4 4 2 3 2 4 3 6 6 5 3 3 2 1 4 4 3 5 7 9 9 10 11 12 9 11 11 12 15 15
5 16 18 17 16 13 6 4 3 3 5 6 5 2 3 5 5 4 3 5 3 3 2 2 3 3 1 2 3 6 6 4 5 4 5 5 7 5 5 8 9 11 13 13 13 12 13 13 14 11 16 16 16 16
15 18 18 19 13 4 3 5 4 3 4 2 3 4 3 3 5 6 6 4 4 4 4 3 1 3 4 4 6 7 5 3 5 6 6 9 7 6 8 8 8 9 10 10 11 12 14 14 15 17 16 14 13 11
17 18 18 16 4 3 3 2 3 3 3 1 3 2 3 3 1 3 2 4 2 1 4 4 4 5 4 5 4 4 5 5 6 7 6 5 6 10 9 9 9 9 10 14 13 10 10 10 11 11 12 15 14 11
11 7 14 4 3 4 3 2 4 2 3 3 2 3 1 2 3 4 4 3 4 3 3 3 3 4 5 6 6 6 5 7 7 7 7 8 11 8 8 10 9 6 7 9 8 9 8 11 11 10 11 12 12 12
6 10 3 3 3 3 3 1 3 4 2 3 4 4 3 5 7 7 4 8 4 2 1 2 4 4 6 7 7 11 13 15 13 16 14 9 5 4 7 8 7 7 9 9 8 7 7 9 7 10 11 12 10 10
5 2 2 3 3 1 3 4 2 3 3 3 4 3 3 3 4 2 3 3 3 3 2 2 2 5 7 7 11 14 12 16 15 16 10 8 11 8 9 9 11 9 8 8 8 8 7 6 8 9 10 9 10 7
3 2 3 3 2 3 3 2 1 2 2 2 2 3 4 3 2 3 4 3 4 5 3 4 5 6 6 6 6 9 11 10 13 12 11 9 9 9 10 10 11 10 8 8 8 8 9 9 7 8 9 7 4 3
1 2 3 5 4 4 3 1 2 3 6 4 4 5 4 2 4 5 4 4 5 4 4 6 7 6 5 5 6 9 5 5 9 6 7 9 8 8 7 8 10 10 9 8 8 8 8 8 7 6 5 5 4 3
4 5 3 4 2 3 4 3 4 5 4 4 5 3 3 4 3 2 2 4 4 5 5 6 5 6 7 7 6 6 6 6 4 5 5 5 6 7 7 6 6 9 8 7 7 6 6 6 6 4 5 5 4 3
4 6 3 2 2 1 3 4 4 4 4 4 3 2 2 4 4 2 2 4 3 6 6 7 9 11 9 8 6 5 4 4 5 6 5 5 6 6 8 8 7 6 5 6 6 6 5 4 4 3 2 2 3 3
4 6 6 6 6 5 4 3 3 4 3 3 1 4 3 3 0 1 3 4 5 5 5 6 6 8 6 7 5 6 6 5 6 5 6 7 7 7 5 5 5 5 6 7 6 6 6 6 5 4 3 3 2 3
3 5 4 6 4 3 4 3 2 3 3 2 3 2 2 2 2 3 4 3 4 4 7 6 7 5 5 5 6 7 7 6 5 2 3 3 3 7 6 3 2 2 4 6 5 5 5 6 7 6 4 4 4 4
6 5 6 8 5 6 5 3 7 5 6 10 9 9 5 5 7 6 7 6 5 6 6 6 6 6 7 6 7 8 10 10 9 8 5 5 6 5 5 4 2 2 2 2 2 2 2 4 3 3 4 5 5 8
1 7 12 11 12 9 7 8 10 10 8 9 8 9 8 6 10 8 8 6 5 4 4 5 7 9 9 9 8 5 8 10 11 11 9 8 8 8 7 5 4 3 2 2 3 4 6 6 5 5 4 6 7 8
4 4 8 11 8 5 4 6 5 6 4 4 5 4 4 2 3 3 4 4 2 2 4 2 5 7 7 8 9 10 9 8 8 8 8 9 9 8 7 6 5 4 4 3 4 4 5 5 6 6 7 8 9 10
4 5 4 4 3 3 3 3 3 3 2 3 2 3 3 3 3 3 2 4 2 2 3 4 4 5 5 5 6 6 5 6 4 5 5 5 5 5 6 5 5 5 6 6 7 6 5 4 5 6 7 8 8 10
Wind_Direction
277 277 277 274 272 272 273 272 272 264 282 296 280 277 305 318 325 311 262 232 226 258 285 287 285 274 257 245 271 66 255 206 239 235 246 245 243 229 230 253 248 235 233 225 234 257 249 111 161 259 356 324 299 297
274 275 271 268 269 268 268 268 256 264 266 286 277 270 266 309 304 301 268 232 237 233 286 299 277 267 266 280 290 272 273 310 319 267 236 262 241 240 247 250 187 246 244 298 247 9 93 338 325 316 300 286 286 283
278 276 270 266 265 264 266 264 258 257 262 264 262 266 262 279 281 301 267 272 303 266 273 252 256 258 246 242 242 259 255 259 249 339 320 277 257 262 222 234 250 203 228 248 258 241 243 278 308 286 334 315 293 286
281 282 271 264 262 261 262 261 255 250 254 262 256 255 251 265 275 288 261 248 247 285 274 283 279 258 256 244 235 231 250 268 273 270 268 258 243 186 259 279 279 276 160 244 248 260 283 277 288 320 324 316 304 270
283 286 270 262 261 256 260 257 250 242 244 250 242 251 243 256 259 272 266 243 234 255 319 304 304 277 252 238 232 228 235 245 250 245 234 242 252 259 251 268 260 250 240 250 255 269 282 281 296 281 315 303 292 265
275 285 276 266 259 256 253 246 241 233 239 243 239 237 239 247 235 293 264 210 217 217 279 297 330 280 253 229 220 224 221 224 232 236 247 254 261 242 253 242 257 276 265 263 260 290 296 292 284 278 290 314 277 241
268 271 280 266 258 244 246 233 230 233 234 234 234 232 234 235 222 232 321 108 118 201 243 280 272 172 247 219 206 213 218 227 225 226 236 244 221 200 253 259 262 241 260 258 257 286 279 266 265 264 275 297 253 247
264 267 270 262 253 247 233 227 221 226 221 216 223 222 230 237 253 258 245 252 253 202 248 260 272 266 176 206 191 200 206 208 215 228 227 226 195 224 253 256 264 275 289 272 254 252 275 278 278 267 266 254 214 215
264 252 262 250 251 237 220 215 210 205 195 205 211 223 239 218 228 232 198 215 201 206 248 242 252 287 312 262 183 185 190 198 213 215 229 220 220 217 231 246 260 293 276 303 284 275 294 279 273 257 233 210 216 212
259 246 248 260 248 229 217 200 193 183 187 191 196 209 225 213 194 160 161 174 187 198 219 250 273 264 351 318 220 171 184 215 206 203 208 229 243 241 235 233 250 259 258 272 285 286 317 287 322 276 217 216 221 227
252 247 244 253 229 222 203 189 180 171 167 198 202 221 343 168 186 199 208 194 175 226 216 240 235 240 336 255 253 170 208 208 200 176 201 217 232 170 125 201 196 209 235 259 266 269 295 294 289 279 232 227 223 229
246 242 242 248 232 204 189 183 179 180 199 191 302 279 236 219 213 221 191 161 203 231 209 234 234 178 229 232 258 237 251 289 205 149 213 241 101 123 160 139 148 210 267 261 265 256 280 296 277 247 223 194 205 218
232 228 232 190 174 174 176 181 185 188 201 270 253 265 212 196 214 226 200 207 204 197 213 217 198 183 204 211 239 231 215 199 138 186 199 107 129 121 121 116 92 251 237 236 262 292 289 291 224 214 187 183 178 167
208 183 175 171 168 171 171 175 175 169 153 225 215 237 223 203 221 232 237 331 28 168 107 280 228 183 191 205 306 261 312 268 219 184 126 133 114 110 95 46 46 48 29 31 4 19 72 13 17 54 124 141 134 110
171 166 162 162 165 167 169 167 171 181 184 241 185 238 224 215 192 240 267 271 255 167 183 266 230 214 179 186 212 262 248 224 42 65 97 105 105 110 73 47 33 11 359 44 18 81 87 58 94 63 43 111 113 108
153 146 161 161 164 161 160 161 172 202 222 229 204 252 271 283 274 286 288 280 310 219 215 236 248 216 208 189 192 210 194 56 70 81 71 55 66 81 138 191 94 64 40 45 61 83 121 107 87 86 66 85 96 85
143 139 163 159 158 162 163 166 184 207 245 239 239 238 257 273 273 276 304 267 215 218 217 206 217 195 125 175 175 23 51 96 93 94 80 52 59 60 88 84 85 75 78 73 80 82 113 126 130 104 97 89 94 100
130 147 154 156 149 153 190 225 227 222 240 239 262 271 270 259 284 278 258 244 216 240 252 279 297 203 82 100 76 113 96 85 88 93 75 76 89 71 97 94 80 82 86 79 82 89 100 104 94 63 79 98 100 92
150 153 158 157 155 194 215 203 219 263 238 239 249 253 242 243 231 241 256 221 230 274 278 278 29 56 69 50 89 96 108 141 112 94 88 91 77 86 89 93 96 98 106 106 92 87 88 93 97 105 103 97 92 83
145 154 165 169 333 260 232 190 195 250 256 261 247 274 278 260 294 274 215 162 215 222 38 25 48 59 62 68 73 92 102 109 114 110 90 83 66 60 57 64 55 63 81 100 97 104 104 113 117 117 112 116 116 108
124 156 176 239 271 233 281 264 230 259 308 277 256 265 218 188 173 120 96 162 59 36 52 11 9 10 69 94 78 73 76 83 89 91 84 77 70 55 60 61 61 71 92 76 89 91 77 87 89 95 93 93 96 100
125 153 204 237 276 270 255 255 297 319 305 303 329 330 14 51 63 53 58 74 79 17 39 328 346 22 68 70 87 92 92 90 96 100 86 65 60 40 52 59 53 59 53 37 34 51 60 70 77 91 100 106 104 98
130 202 244 231 257 258 278 322 294 5 338 11 337 20 26 34 5 326 65 41 51 20 345 309 49 92 95 97 99 93 95 96 94 95 100 86 87 75 66 51 43 40 50 47 43 44 66 89 87 99 111 110 98 101
7 328 320 334 341 297 276 225 186 260 216 212 38 40 19 359 279 76 63 34 19 18 45 88 110 118 114 128 111 117 97 112 127 119 129 124 91 74 58 54 51 47 42 51 61 68 77 88 118 106 97 117 139 82
283 240 226 237 232 238 242 167 69 45 67 89 84 80 42 9 45 41 32 20 19 8 17 67 68 76 85 89 102 97 86 138 111 111 92 90 106 108 87 79 61 42 41 69 66 77 85 89 93 95 90 70 57 51
225 204 221 343 88 344 16 55 47 40 52 60 54 60 49 54 63 49 27 343 8 22 18 41 47 81 83 75 88 75 45 20 8 108 101 43 31 42 49 34 57 62 42 48 61 79 79 83 80 83 101 96 64 30
35 25 27 44 326 33 75 54 38 51 51 52 69 63 56 76 41 24 93 12 2 5 15 31 46 47 56 58 48 28 30 36 28 53 83 66 54 40 30 32 52 48 45 50 53 58 64 57 48 36 43 59 51 21
20 18 26 32 61 40 72 54 50 33 42 14 54 44 45 70 86 64 69 49 59 82 72 65 71 83 78 68 50 52 66 81 95 106 106 94 68 57 51 68 77 85 65 56 52 62 50 39 23 15 1 336 338 332
34 334 335 39 58 64 40 34 66 40 353 30 89 82 91 109 81 360 6 23 112 109 98 86 75 82 85 68 43 29 15 351 325 300 309 340 14 50 19 18 62 107 100 94 90 76 54 30 17 3 5 359 346 325
12 10 70 58 64 52 50 56 90 99 98 98 108 125 114 93 61 85 99 121 127 87 64 63 58 55 46 43 62 52 43 38 30 15 30 43 33 13 14 24 76 91 89 63 86 116 21 295 321 292 343 339 350 343
334 95 95 83 83 82 86 98 86 92 91 88 94 102 101 109 101 73 67 69 87 98 101 89 68 43 38 38 25 53 81 63 66 62 56 56 50 47 47 49 65 69 45 7 341 342 348 335 348 340 350 347 348 330
76 77 97 98 93 89 87 86 77 79 78 102 102 112 137 114 83 97 30 347 291 109 73 25 55 67 59 71 75 77 79 80 68 57 50 51 54 49 51 52 47 36 14 352 334 328 334 325 337 346 339 339 341 341
102 102 92 102 122 117 113 108 107 119 148 130 97 41 47 33 68 84 107 24 6 43 83 77 78 86 87 81 90 95 83 83 80 61 51 47 43 31 8 17 13 1 353 346 340 336 330 328 322 334 331 334 335 332